Location: Caltech
(34.1382°N, 118.1253°W)
Time: 12:22:11
(UTC-07:00)

Cosmos 1833 Rocket - Visible Passes

Search period start: 27 August 2015 00:00
Search period end: 06 September 2015 00:00
Orbit: 831 x 841 km, 71.0° (Epoch: 27 August)

Date Brightness Start Highest point End Pass type
(mag) Time Alt. Az. Time Alt. Az. Time Alt. Az.
27 Aug 2.7 19:46:04 10° NNW 19:51:41 68° ENE 19:57:16 10° SSE visible
27 Aug 5.4 21:32:36 10° WNW 21:35:06 13° W 21:37:12 10° WSW visible
28 Aug 5.3 21:15:31 10° WNW 21:18:29 14° W 21:21:08 10° SW visible
29 Aug 5.3 20:58:31 10° WNW 21:01:53 16° W 21:04:57 10° SW visible
30 Aug 5.3 20:41:35 10° WNW 20:45:16 17° W 20:48:41 10° SW visible
31 Aug 5.3 20:24:42 10° WNW 20:28:40 19° WSW 20:32:23 10° SW visible
01 Sep 5.2 20:07:51 10° NW 20:12:03 21° WSW 20:16:03 10° SSW visible
02 Sep 5.2 19:51:02 10° NW 19:55:26 23° WSW 19:59:40 10° SSW visible
03 Sep 5.1 19:34:14 10° NW 19:38:50 25° WSW 19:43:16 10° SSW visible
